Погода в Лиде

Погода в Лиде : погода сейчас, прогноз погоды и архив. Всё, что Вы хотите узнать о погоде в Лиде!

Хотите узнать прогноз погоды в Лиде? Тогда Вам сюда: Погода в Лиде

Поиск расширенной информации на нашем сайте:

Другие новости

Новости СМИ2

Главная страница сайта

Новости сайта

03.07.2017

Напоминаем, что на нашем специализированном сайте Метеоцентр.Азия вы можете получить высокодетализированные автоматические прогнозы погоды по пунктам России, СНГ и мира в авиационном формате (включающие направление и скорость ветра, видимость, явления погоды, количество и форму облачности, нижнюю и верхнюю границу облачности).

Рекомендуем: купить автоприцеп для легкового авто

Погода в Лиде - сегодня

Время (UTC), дата Ветер
(°,м/с) 
Видим.   Явления Облачность Т
(°С)
Тd
(°С)
f(%) Тe
(°С)
Pmin
(гПа)
dP
(гПа)
Po
(мм)
O2
(г/м3)
Тmin Tmax R s Состояние
почвы
00 19.09.17 260 (З) 5-10{14}  9000 м  дымка{ливн. осадки}  8/8 240 м 
[St]
+10.3 +8.5 89 +9  1012.2  2.8  745  288      0.0     
03 19.09.17 240 (ЮЗ) 3{10}  9000 м  дымка  6/0 средняя, верхняя 
[Ac trans|Ci fib]
+9.3 +7.8 90 +9  1013.7  1.3  746  289      0.6     
06 19.09.17 250 (З) 8000 м  дымка  10/8 300 м средняя 
[St|Ac As]
+10.2 +9 92 +9  1015.5  1.9  747  289  +8.8    0.6     
09 19.09.17 250 (З) 11000 м    8/4 600 м верхняя 
[Cu med, cong|Ci fib]
+13 +9 77 +13  1016.5  1.1  748  286           
12 19.09.17 240 (ЮЗ) 15000 м    3/3 600 м верхняя 
[Cu hum|Ci fib]
+16.3 +8.5 60 +16  1016.9  0.7  749  283           
15 19.09.17 220 (ЮЗ) 15000 м    4/1 1000 м верхняя 
[Cu hum|Ci fib]
+16.2 +7.7 57 +17  1016.9  749  284           
18 19.09.17 тихо ()   8000 м  дымка  3/0 верхняя 
[Ci fib]
+9.7 +9.3 97 +10  1018.4  750  290    +17.1       
21 19.09.17 тихо ()   7000 м  дымка  4/0 верхняя 
[Ci fib]
+8.9 +8.5 97 +9  1019  0.5  750  291           
00 20.09.17 тихо ()   7000 м  дымка  9/0 средняя 
[Ac As]
+8.5 +8.2 98 +9  1019  750  292           
03 20.09.17 090 (В) 9000 м  дымка  9/0 средняя 
[Ac As]
+9.8 +8 89 +11  1018.6  -0.3  750  290           
06 20.09.17 тихо ()   8000 м  слаб. ливневой дождь  10/8 600 м кучево-дожд., средняя 
[Cb calv|Ac As]
+10 +9 93 +10  1019.6  750  290  +7.8    0.4     
09 20.09.17 070 (В) 10 км  в посл. час ливневой дождь  10/10 210 м 
[Sc]
+11 +9.8 92 +12  1019.3  -0.3  750  289         
12 20.09.17 070 (В) 10 км  {ливн. осадки}  10/10 870 м кучево-дожд. 
[Cb calv]
+11.7 +10.2 91 +13  1018.4  -0.8  750  288      0.0     
15 20.09.17 060 (СВ) 9000 м  дымка  10/8 300 м средняя 
[St|Ac As]
+11.8 +10.6 92 +14  1017.9  -0.4  749  287      0.9     
18 20.09.17 050 (СВ) 9000 м  дымка  10/8 240 м средняя 
[St|Ac As]
+11.5 +10.2 92 +13  1018.2  0.2  749  288    +12.1  0.9     
21 20.09.17 040 (СВ) 9000 м  дымка  8/8 1050 м 
[Sc]
+10.7 +10.2 97 +13  1017.7  -0.5  749  289           
00 21.09.17 050 (СВ) 9000 м  дымка  ясно 
+10.2 +9.5 95 +11  1017  -0.7  749  289           
03 21.09.17 050 (СВ) 9000 м  дымка  10/8 210 м средняя 
[St|Ac As]
+10.5 +9.7 95 +11  1016.1  -0.9  748  288           
06 21.09.17 060 (СВ) 9000 м  слаб. ливневой дождь  10/8 540 м кучево-дожд., средняя 
[Cb calv|Ac As]
+10.9 +9.9 94 +12  1014.6  -1.5  747  288  +9.9       
09 21.09.17 050 (СВ) 8000 м  слаб. ливневой дождь  10/8 270 м кучево-дожд., средняя 
[Cb calv|Ac As]
+11.5 +10.5 94 +14  1013.8  -0.7  746  287         
12 21.09.17 030 (СВ) 9000 м  дымка{ливн. осадки}  10/8 300 м средняя 
[St|Ac As]
+12.6 +11.7 94 +17  1013.1  -0.6  746  285      0.0     
15 21.09.17 040 (СВ) 9000 м  дымка  10/8 450 м средняя 
[St|Ac As]
+12.9 +12.2 96 +18  1012.9  -0.2  746  285         
18 21.09.17 030 (СВ) 9000 м  дымка  10/10 210 м 
[Sc]
+13.2 +12.6 96 +19  1013.4  0.5  746  284    +13.4     
21 21.09.17 тихо ()   8000 м  слаб. ливневой дождь  10/10 210 м кучево-дожд. 
[Cb calv]
+13.9 +13 94 +19  1014  0.6  746  284      0.0     
00 22.09.17 080 (В) 7000 м  в посл. час ливневой дождь{гроза}  10/8 210 м средняя 
[St|Ac As]
+14.2 +13.8 97 +22  1012.8  -1.1  746  283         
Время (UTC), дата Ветер
(°,м/с) 
Видим.   Явления Облачность Т
(°С)
Тd
(°С)
f(%) Тe
(°С)
Pmin
(гПа)
dP
(гПа)
Po
(мм)
O2
(г/м3)
Тmin Tmax R s Состояние
почвы

Для получения пояснительной информации подведите курсор к названию столбца.

ПОГОДА в Лиде - архив

Всё, что Вы хотите узнать о погоде в Лиде - удобно и подробно!

Выберите нужную дату (начиная с 1 января 2015* года) и нажмите кнопку "Найти".
Будут отображены архивные сводки погоды по пункту Лида, начиная с указанной даты.


Отображать данные в формате CSV (для использования в таблицах Excel)


Внимание! Наш архив погоды предназначен исключительно для личного некоммерческого использования в познавательных целях. Если Вам необходимы официальные справки о состоянии погоды (для производственных, юридических, коммерческих и т.п. целей), обращайтесь в органы Росгидромета.

*Примечание: данная дата относится к архиву по метеостанциям СССР (Россия, СНГ, Балтия).
Архив по метеостанциям Зарубежной Европы и Азии (кроме Китая) хранится 10 дней, по другим регионам земного шара (Китай, Африка, Америка, Австралия, Океания) - 1 день.

Лида - район местоположения метеостанции


Название, широта, долгота, высота метеостанции:
Лида 53.9°ш. 25.3°д. 157 м над ур. моря [Беларусь]

Дополнительная информация

В oтличие oт бoльшинства пoгoдных сайтoв мы публикуем пoдрoбную метеoинфoрмацию в детальнoм прoфессиoнальнoм фoрмате.

Характеристики температуры и влажнoсти вoздуха измеряются на высoте 2 м в тени вдали oт зданий и деревьев.
Скoрoсть ветра измеряется на высoте 10 м (на урoвне рoста челoвека скoрoсть ветра ниже в 1.5-2 раза). Если метеoстанция нахoдится в гoрoде или в лесу, тo скoрoсть ветра занижена на 2-4 м/с пo сравнению с oткрытым местoм. Скoрoсть ветра над акватoриями крупных рек и oзёр, а также на вершинах хoлмoв на 2-5 м/с выше, чем в oбычных услoвиях.
Атмoсфернoе давление в разных тoчках местнoсти мoжет значительнo oтличаться oт давления на метеoстанции, в зависимoсти oт услoвий рельефа (при пoдъёме на 10 м давление пoнижается примернo на 1 мм рт.ст.).